Temp
21 19 18 18 19 21 21 21 22 23 23 21 21 22 22 20 17 18 17 17 17 18 19 19 20 20 19 18 18 17 16 16 15 15 14 14 14 13 13 13 12 12 12 12
20 18 20 20 20 20 21 20 20 21 23 21 20 21 22 19 18 19 19 18 18 18 17 17 18 19 18 18 18 17 16 15 15 15 15 15 14 13 13 13 12 12 12 12
17 20 21 21 21 21 21 21 21 22 24 22 22 21 21 21 20 21 21 20 19 19 19 17 16 16 17 17 17 17 16 15 15 15 14 14 13 12 12 12 12 12 12 12
18 21 22 21 21 21 21 21 22 23 22 20 21 22 20 20 20 19 21 21 20 19 20 18 17 16 15 16 18 17 16 15 15 15 14 14 13 12 12 12 12 12 12 12
20 23 20 21 22 22 22 22 22 23 21 20 20 18 22 21 21 22 21 21 20 20 20 18 17 16 15 16 17 17 16 15 15 15 14 14 13 13 12 12 11 11 11 11
19 21 22 22 23 22 22 23 19 17 17 17 20 19 24 22 23 25 25 22 20 19 19 18 18 16 15 15 16 16 16 15 15 14 14 13 13 12 12 11 11 11 11 11
19 21 22 23 23 22 22 19 17 18 16 19 19 19 24 21 21 21 23 23 18 18 18 17 15 15 14 14 15 16 15 14 14 14 13 13 13 12 12 12 12 11 11 11
18 20 20 21 23 21 18 20 17 18 18 22 18 18 23 21 25 26 23 21 19 16 17 16 15 15 14 14 14 14 14 14 14 14 13 13 13 12 12 12 12 12 11 11
18 18 21 21 23 22 21 18 21 20 19 17 18 19 21 20 21 20 20 20 18 16 17 16 15 15 14 14 14 14 14 14 14 14 13 13 13 12 12 12 12 12 11 11
19 19 22 22 22 21 21 20 19 16 18 18 19 18 21 21 24 23 20 18 19 16 15 15 14 14 14 14 14 14 14 14 14 14 13 13 13 13 12 12 12 11 11 11
18 17 20 21 19 20 19 20 18 17 17 20 20 22 19 23 23 22 21 20 19 16 16 15 15 15 14 14 13 13 13 13 13 14 13 13 13 13 12 12 12 11 11 11
16 15 16 19 21 21 22 22 21 20 20 15 21 22 24 21 20 20 22 19 16 16 15 14 13 13 13 13 12 12 12 13 13 14 14 13 13 13 12 12 12 11 11 10
15 15 15 17 18 17 17 18 19 20 21 20 20 22 23 23 23 21 19 18 17 17 14 13 11 12 13 13 12 12 12 12 13 14 14 13 13 12 12 12 11 11 10 10
13 13 14 14 13 10 12 11 13 13 17 20 20 21 23 22 20 20 19 17 17 17 16 14 13 13 14 13 13 13 12 13 14 14 13 13 13 12 12 12 11 11 10 10
13 11 12 12 13 13 12 12 11 11 11 11 14 17 23 23 23 23 21 18 16 16 15 14 14 13 13 13 13 13 13 13 13 13 13 13 13 12 12 12 11 11 10 10
10 11 13 12 13 12 12 12 13 12 13 13 16 16 21 23 21 21 22 19 18 17 17 16 15 14 13 13 13 13 12 12 13 12 12 13 13 12 12 12 11 11 10 10
10 10 9 10 12 13 11 13 13 15 16 15 13 13 14 13 14 20 20 20 20 20 18 16 16 15 14 14 14 12 12 12 12 12 12 13 12 12 12 11 11 10 10 9
10 10 9 9 10 10 14 16 16 15 16 14 12 12 10 10 11 12 17 22 21 18 18 17 17 16 15 14 14 13 12 12 12 12 12 13 12 12 11 11 10 10 9 9
9 10 10 10 9 12 13 16 15 13 12 12 11 10 10 9 9 12 16 14 17 18 18 18 18 16 13 13 13 12 11 11 11 11 12 12 12 11 11 10 10 9 9 9
11 11 9 8 6 8 13 14 15 13 12 11 11 10 9 9 8 10 12 12 13 14 17 16 16 14 12 12 12 11 10 10 10 11 12 12 11 11 10 10 9 9 9 9
8 8 8 9 9 10 12 12 13 11 12 11 11 11 10 9 9 10 11 12 14 15 13 14 12 12 12 11 11 10 9 10 11 12 12 11 11 11 10 10 9 9 9 8
7 8 8 8 8 7 11 13 10 11 11 11 12 12 11 10 10 10 11 12 11 12 11 11 10 9 10 11 11 9 10 10 12 11 11 11 11 10 10 9 9 9 8 8
7 8 9 8 8 10 11 12 11 11 11 11 11 11 11 10 10 10 10 11 11 11 11 10 10 9 10 11 12 9 9 11 11 11 11 11 10 10 9 9 9 8 8 7
7 8 8 7 9 11 12 12 11 11 10 11 11 11 11 11 10 10 10 11 11 10 10 10 10 9 8 10 11 12 11 11 11 11 10 10 9 9 9 9 8 8 8 7
8 8 9 8 10 10 11 11 10 10 10 11 11 12 13 12 11 10 10 10 11 10 10 11 10 10 9 10 12 12 11 11 11 10 10 9 9 9 9 8 8 8 7 7
8 9 8 8 10 9 10 11 10 10 10 11 11 11 12 12 11 11 10 10 10 10 10 9 10 10 9 10 11 11 11 11 10 9 9 9 8 8 8 7 7 7 7 6
Height
808 822 826 816 811 809 813 818 813 800 791 802 803 794 784 782 789 786 784 782 781 776 773 781 784 788 792 796 799 802 806 809 812 815 817 818 819 821 822 823 824 825 825 826
817 825 799 804 806 810 812 817 816 801 787 796 796 789 775 780 778 773 768 770 769 770 772 773 777 780 784 788 792 797 801 804 808 810 812 814 816 818 819 820 821 822 823 823
824 803 790 800 804 808 807 808 808 803 785 787 789 784 778 765 763 758 755 754 756 755 757 762 768 770 775 779 783 789 794 799 803 806 808 810 813 815 817 817 818 819 820 821
813 792 793 800 800 798 805 789 791 794 800 816 789 786 776 768 761 755 748 743 742 741 744 751 756 762 765 770 777 782 788 792 797 801 803 805 808 811 813 814 815 817 818 818
807 791 797 796 786 786 789 781 787 786 797 799 796 812 764 757 759 746 738 729 724 724 732 736 741 745 753 762 769 776 781 786 791 794 798 801 804 807 809 811 813 814 815 816
795 781 783 784 774 776 776 783 795 802 808 818 787 798 740 755 741 729 717 717 714 717 720 725 732 741 748 755 762 769 775 780 784 788 792 795 799 803 805 808 809 810 811 813
794 781 772 769 781 777 778 798 824 822 824 798 775 791 736 732 728 725 716 707 706 706 713 720 727 733 740 746 753 761 767 772 778 782 786 790 794 798 801 803 805 806 807 809
808 792 775 763 764 773 784 786 808 816 813 774 777 777 730 719 704 699 703 700 702 706 705 710 714 721 729 737 745 753 759 765 771 776 780 785 790 793 796 798 800 802 803 804
801 787 758 754 748 757 771 787 765 783 784 797 773 748 720 714 711 706 705 702 700 700 700 702 708 714 722 730 735 742 751 758 764 769 775 780 784 788 791 794 796 797 799 800
784 782 755 751 751 750 758 760 783 792 792 792 762 762 737 718 703 698 703 701 693 695 698 699 703 708 714 721 730 738 745 749 756 763 769 774 778 783 786 789 791 793 794 795
782 784 754 754 763 763 765 762 765 769 774 764 757 734 714 703 696 697 693 690 688 690 691 691 696 702 708 716 724 730 737 744 750 757 763 768 773 778 781 784 786 788 790 791
792 788 776 757 741 736 735 738 738 752 750 765 738 709 688 697 697 695 685 681 685 686 689 690 694 699 706 711 717 723 730 736 742 749 756 762 767 772 775 778 781 783 785 785
798 787 783 760 751 750 755 748 746 730 726 729 731 702 689 686 686 688 689 685 682 681 687 689 693 695 699 704 710 716 722 728 735 743 749 755 761 766 770 773 776 778 780 780
802 796 784 780 783 799 786 783 774 777 744 722 714 699 689 691 694 687 683 680 677 676 677 682 689 689 692 698 703 709 715 722 730 736 742 749 755 760 764 768 771 774 775 776
801 798 794 789 782 781 778 777 779 780 772 770 738 722 685 679 677 672 672 675 677 677 675 676 678 682 686 691 697 704 709 716 723 730 736 742 749 755 759 763 766 769 770 771
799 794 781 776 770 766 761 764 757 757 745 744 726 712 694 674 672 667 665 670 669 668 665 664 667 674 678 681 686 695 702 709 717 724 730 738 744 750 754 758 761 764 765 766
793 788 789 775 761 757 754 741 738 726 716 722 732 723 714 707 694 671 660 657 651 649 652 655 658 661 665 671 677 685 693 704 712 718 725 733 739 744 748 752 756 758 759 761
781 780 783 778 767 766 727 718 715 713 710 721 718 722 729 722 709 685 659 644 639 642 643 645 647 652 657 664 672 681 688 696 705 713 721 728 734 739 743 747 750 752 755 756
773 775 768 763 766 741 730 709 710 715 713 709 719 726 724 718 707 676 662 664 656 642 628 626 630 636 647 655 663 673 684 690 700 708 715 722 728 734 738 741 745 748 750 750
763 764 772 774 789 769 716 714 706 703 711 718 717 711 707 713 715 690 674 661 652 644 633 621 625 632 641 651 658 668 679 687 694 701 710 718 724 729 733 737 741 743 744 744
776 773 772 766 761 745 720 717 713 724 720 710 710 709 709 718 708 691 675 658 643 628 623 619 622 626 635 646 655 665 675 684 691 700 709 715 721 725 729 733 736 737 739 739
783 777 771 759 760 757 717 711 728 726 715 709 702 696 702 703 688 681 672 658 641 624 616 617 622 630 638 646 653 663 674 682 691 700 707 713 717 722 726 729 731 732 733 734
780 764 757 758 743 723 714 714 709 711 708 704 702 695 692 688 677 674 668 657 643 633 618 619 623 633 643 648 653 665 674 683 692 698 705 710 715 719 722 725 726 727 728 728
754 751 750 755 725 717 710 708 706 705 704 698 692 687 679 667 672 670 668 660 651 644 637 627 631 639 647 652 658 665 675 684 691 698 703 708 712 715 718 721 722 724 724 724
749 746 736 735 719 716 706 700 704 701 696 690 683 679 674 671 666 668 667 664 657 651 646 637 637 644 652 657 663 670 677 684 689 695 700 705 709 712 715 717 719 720 720 720
731 730 736 724 714 714 699 702 698 696 691 684 678 671 665 661 662 663 662 661 660 655 649 645 644 649 657 660 666 672 677 682 687 693 698 702 706 709 712 713 715 716 716 715
Wind_Speed
3 3 9 13 10 3 4 5 5 4 6 9 15 20 19 12 9 13 13 15 17 21 22 24 34 31 30 34 32 29 27 25 23 22 17 12 11 9 7 5 5 3 3 1
0 9 15 6 7 8 8 8 9 8 8 10 9 20 18 7 10 16 21 17 20 17 13 19 30 35 37 36 34 31 29 28 26 22 18 10 12 9 7 8 7 6 5 4
6 7 4 9 7 8 11 14 6 9 3 4 4 11 8 9 16 19 20 18 19 21 22 17 24 32 38 40 38 34 32 30 27 22 17 13 10 8 9 9 9 7 6 5
7 13 15 6 8 14 16 8 14 10 4 7 6 14 8 7 15 10 20 20 22 22 21 18 22 28 35 40 41 37 33 32 29 24 20 18 15 12 11 10 9 7 6 6
8 4 8 15 18 8 9 8 9 6 5 1 5 4 3 4 7 15 13 21 23 22 20 22 23 35 39 39 44 39 35 35 31 27 22 20 17 13 10 10 9 8 7 8
11 4 3 5 6 9 4 3 6 4 3 5 10 8 24 9 15 14 15 11 16 17 20 19 27 29 32 36 41 39 37 37 33 29 25 22 19 15 14 13 12 10 10 9
5 10 6 6 6 2 4 6 3 4 2 11 11 8 22 8 8 11 15 16 11 14 15 15 18 21 29 34 39 41 40 40 36 33 29 25 20 17 17 14 14 12 12 11
4 12 9 9 20 13 9 9 7 8 7 12 6 10 13 12 20 20 15 12 6 9 14 17 21 25 31 34 36 39 40 40 38 35 32 27 21 20 18 17 17 16 16 13
5 9 6 4 14 14 9 9 9 7 1 2 6 9 11 8 10 9 11 9 11 11 15 18 16 25 29 33 38 41 40 40 40 37 33 29 24 22 19 18 17 16 15 14
4 17 12 11 2 3 10 6 2 0 7 11 10 6 12 5 15 14 10 12 12 9 9 11 14 22 29 32 35 37 41 43 42 38 35 30 26 23 20 18 15 15 14 13
4 7 14 3 6 8 2 9 5 5 7 13 16 12 9 17 16 12 12 13 14 12 14 13 13 21 26 28 32 36 38 38 40 39 36 30 28 24 22 19 15 15 14 13
4 5 9 14 12 13 19 17 21 13 16 5 15 23 2 7 8 9 15 10 7 8 8 9 10 16 22 27 30 34 35 37 41 41 36 33 30 26 24 20 16 15 14 13
8 4 9 14 9 5 5 8 14 11 15 21 19 23 6 11 14 9 9 9 9 10 8 7 8 13 20 26 29 32 35 37 40 39 37 35 33 28 25 20 15 14 13 14
3 5 10 10 5 7 10 23 22 12 12 19 22 31 26 12 8 10 10 12 10 12 15 13 9 13 18 24 28 29 31 36 39 39 38 38 34 30 25 19 15 14 13 15
3 9 13 18 23 22 21 22 24 23 17 11 26 30 27 21 19 21 16 7 7 10 11 13 14 13 13 20 24 27 31 36 38 37 38 38 33 29 23 18 16 14 14 16
6 15 14 18 21 19 20 17 21 24 23 23 23 29 22 26 15 14 16 10 12 13 15 16 16 14 15 23 27 28 30 34 37 36 37 37 33 27 22 18 16 14 15 15
14 12 6 19 20 19 15 15 18 15 15 12 17 14 21 20 26 22 15 15 20 19 16 15 17 18 17 27 30 29 32 34 35 35 37 35 31 26 21 18 16 15 12 9
16 18 9 12 14 15 11 12 17 19 18 8 9 12 14 19 26 31 21 21 20 15 16 16 16 14 23 26 28 28 33 35 34 32 35 34 30 24 20 17 15 12 9 11
6 10 5 4 5 13 14 11 4 1 7 5 6 12 19 22 28 26 16 25 24 14 17 18 25 25 23 30 32 32 30 32 31 31 33 34 28 23 19 17 14 12 10 12
4 9 6 5 3 10 24 7 6 3 7 9 9 15 18 18 12 16 28 33 35 27 18 12 20 20 25 27 33 30 27 28 28 32 36 31 26 22 18 16 14 11 11 13
3 2 5 9 9 7 6 8 8 7 9 13 7 9 9 10 9 22 27 31 30 26 13 16 21 21 25 31 33 26 26 26 31 35 31 27 21 18 17 15 12 11 13 15
3 7 9 5 5 8 5 16 5 8 12 13 11 10 10 15 16 20 24 29 22 8 10 15 13 16 23 30 31 24 23 29 33 32 26 21 18 17 16 14 12 12 14 16
7 8 7 7 8 9 10 16 12 10 17 17 12 14 6 13 14 16 24 27 13 11 7 14 18 19 20 26 30 24 27 34 31 25 21 18 18 18 15 13 12 13 15 15
7 8 7 7 19 20 17 18 16 16 14 11 14 14 9 11 12 12 19 22 17 8 5 14 17 13 15 25 28 32 33 31 27 23 20 19 18 15 12 11 11 13 12 13
7 5 13 16 22 18 21 18 10 11 14 18 16 13 16 14 10 7 10 21 18 6 6 7 14 14 15 24 27 30 29 27 24 21 19 17 14 11 10 9 10 10 11 13
11 14 7 14 18 15 21 17 20 16 18 19 20 19 12 12 13 8 6 13 14 7 5 5 12 16 18 24 26 25 25 25 24 20 17 15 12 10 8 8 9 11 12 6
Wind_Direction
227 146 215 201 204 167 196 216 231 246 218 182 222 236 246 235 209 232 228 218 216 219 221 212 212 207 198 196 197 197 193 191 188 185 182 189 193 195 204 218 212 235 263 317
221 231 232 199 216 225 241 260 266 270 252 181 238 243 243 208 221 219 227 221 221 222 213 203 203 203 196 194 197 198 198 194 195 202 201 197 193 206 212 207 220 238 251 270
191 237 194 191 224 214 235 234 240 235 286 251 313 268 250 243 229 232 238 231 224 217 212 203 199 199 194 193 192 194 196 196 198 203 200 191 187 200 211 213 210 233 242 264
234 243 258 201 231 203 241 211 231 245 182 248 159 278 228 240 247 220 234 235 229 220 217 205 201 199 194 197 201 200 198 197 201 206 205 201 202 200 211 211 224 223 238 263
249 271 229 244 234 182 237 187 207 216 217 5 207 272 203 249 267 265 240 233 228 222 209 200 198 198 196 194 202 203 202 200 201 206 207 203 202 212 210 218 222 231 238 251
237 269 277 236 239 212 139 105 33 43 95 256 211 182 272 218 224 245 259 262 227 207 204 203 198 191 192 192 198 201 201 200 201 201 204 206 204 210 213 221 227 232 245 241
307 241 213 192 235 347 157 109 271 281 191 243 168 202 241 251 239 221 248 268 232 199 194 185 179 186 185 186 192 199 202 198 198 200 202 204 208 214 221 227 229 235 241 244
263 286 176 209 207 198 204 178 185 211 221 258 175 227 245 219 243 255 233 244 227 201 191 187 187 186 186 186 188 192 196 196 197 198 200 202 210 216 223 232 235 239 239 254
224 255 258 196 215 183 208 214 222 283 160 320 218 274 281 256 261 262 242 240 229 205 194 191 184 185 183 186 190 191 193 196 199 200 199 202 209 212 224 231 238 241 244 257
288 289 242 263 186 251 201 168 185 175 249 251 259 264 243 308 241 246 254 233 238 208 200 187 181 181 187 189 189 191 196 195 200 200 200 205 209 214 222 224 225 234 248 257
278 228 269 206 197 211 197 224 218 179 191 242 258 254 197 228 232 235 235 233 233 208 202 188 184 185 182 180 185 189 193 194 198 201 202 208 208 215 217 219 231 242 249 266
304 289 279 265 245 233 232 229 221 231 241 243 246 257 177 221 263 254 252 242 226 206 201 183 176 164 174 181 183 189 190 193 198 202 206 209 210 214 213 219 235 241 252 267
349 296 308 298 301 6 344 337 309 255 246 243 246 260 207 250 252 254 260 263 228 211 193 184 165 181 184 186 184 187 190 194 199 205 207 208 208 209 211 221 231 239 259 273
297 272 286 285 338 336 306 316 316 349 280 269 247 263 265 271 267 268 263 252 231 208 201 193 193 199 192 190 188 188 190 194 200 204 206 207 207 206 212 221 230 247 264 269
243 264 262 262 277 282 280 270 279 286 293 288 291 292 273 261 252 246 254 285 245 225 195 195 202 199 190 187 188 189 190 193 200 200 204 206 204 205 210 218 233 251 261 273
205 271 270 273 274 272 277 278 256 258 259 274 290 296 308 285 286 260 249 224 236 226 216 208 205 194 191 190 188 187 187 190 196 195 198 200 200 202 208 221 235 248 262 277
257 262 263 273 281 289 280 253 244 248 248 249 263 323 344 355 342 296 252 235 227 221 216 207 203 199 197 194 185 183 183 187 188 190 194 198 196 201 209 221 229 244 260 266
258 260 263 259 283 262 258 252 260 255 261 339 2 353 352 339 327 309 290 257 240 219 218 214 207 202 198 188 183 180 178 182 182 185 193 195 195 200 208 214 227 238 242 279
234 257 282 254 236 291 300 276 8 77 251 278 339 342 334 339 331 307 342 337 316 258 214 208 204 196 176 173 175 172 171 174 177 182 192 191 193 195 200 211 220 227 257 290
328 239 228 257 267 274 265 306 302 213 276 27 347 341 342 342 308 307 312 312 303 293 261 201 184 164 161 168 168 162 166 169 175 183 187 187 188 191 200 210 219 244 273 286
302 302 268 290 287 272 302 25 339 358 319 315 314 310 325 286 272 295 302 302 296 284 233 166 155 164 164 158 158 157 162 173 177 183 179 177 184 195 202 210 228 260 275 275
286 305 287 261 256 272 195 324 350 272 284 278 285 299 278 279 306 313 319 318 302 233 147 140 126 129 145 155 153 149 160 171 173 167 170 179 188 194 201 217 242 261 266 273
256 206 258 211 244 278 299 296 293 296 294 282 279 285 258 295 302 319 321 327 331 328 112 121 125 121 135 147 154 146 159 163 162 166 175 184 191 196 204 225 247 260 272 279
242 245 246 291 264 262 280 290 290 283 275 285 290 289 273 304 298 324 322 322 324 341 328 114 118 126 131 149 156 162 161 165 168 171 178 186 189 196 214 232 253 264 274 280
253 271 271 268 275 289 275 272 288 294 296 298 292 297 285 265 260 290 319 310 317 310 329 115 127 132 142 154 161 163 167 170 171 178 181 183 192 198 216 240 257 268 284 291
232 265 256 267 277 281 278 291 293 292 291 295 295 294 283 270 256 243 274 291 300 266 204 135 135 145 159 158 159 165 171 176 174 174 179 183 190 202 219 242 263 282 293 281